Location: Maiden
(35.5760°N, 81.2120°W)
Time: 03:25:18
(UTC-04:00)

Cosmos 1821 Rocket - Pass Details

Date: 02 August 2020
Orbit: 946 x 1004 km, 82.9° (Epoch: 11 August)

Event Time Altitude Azimuth Distance (km) Brightness Sun altitude
Exits shadow 21:59:04 25° 141° (SE) 1,791 4.8 -17.0°
Maximum altitude 22:01:58 41° 90° (E) 1,343 4.4 -17.5°
Drops below altitude 10° 22:07:39 10° 22° (NNE) 2,692 6.5 -18.4°
Sets 22:10:18 0° 15° (NNE) 3,649 7.3 -18.8°
